Location: Newark
(13.6797°N, 8.5297°E)
Time: 15:21:09
(UTC+00:00)

A-11 Canister half - Pass Details

Date: 18 January 2020
Orbit: 1517 x 1683 km, 47.2° (Epoch: 23 February)

Event Time Altitude Azimuth Distance (km) Brightness Sun altitude
Rises 20:43:10 0° 190° (S) 4,830 11.8 -48.2°
Reaches altitude 10° 20:47:11 10° 177° (S) 3,816 11.1 -49.1°
Enters shadow 20:47:15 10° 177° (S) 3,802 11.1 -49.2°
Maximum altitude 20:54:25 24° 128° (SE) 2,832 - -50.8°
Drops below altitude 10° 21:01:26 10° 79° (ENE) 3,723 - -52.5°
Sets 21:05:14 0° 66° (ENE) 4,686 - -53.4°
